Theta_e
357 354 355 348 349 347 346 346 345 346 343 343 342 340 339 340 340 339 340 350 347 347 347 350 349 349 352 353 351 349 349 348 350 350 349 348 347 346 344 345 345 343 343
360 351 352 348 346 345 343 344 346 345 344 344 342 343 343 344 343 346 341 343 347 346 347 346 349 351 351 353 351 349 348 346 349 349 349 348 347 346 346 345 345 345 344
361 358 348 348 346 349 350 347 345 346 342 344 346 344 344 345 344 349 345 343 343 345 346 346 348 350 352 353 352 350 348 347 347 348 348 347 347 346 345 345 346 345 344
362 360 350 348 349 348 344 342 342 341 342 340 346 345 346 348 349 351 347 346 346 344 344 346 347 350 352 351 350 349 347 344 346 347 347 347 347 346 345 345 345 345 343
357 356 351 349 357 345 345 343 343 343 342 346 346 346 348 347 351 347 350 351 351 344 342 344 345 348 350 351 349 350 348 346 345 346 346 346 346 346 345 345 345 344 344
351 356 348 352 349 343 340 339 345 342 343 344 344 346 350 348 350 351 351 349 348 348 349 350 348 347 347 349 349 349 348 347 347 346 345 345 345 345 345 345 345 344 344
349 354 347 348 347 344 347 344 341 346 343 349 346 345 347 353 351 350 351 349 349 348 349 350 351 349 344 346 346 348 348 348 346 346 344 343 344 344 345 345 345 345 344
351 351 351 346 349 346 349 349 350 344 345 350 345 342 334 341 348 350 350 349 348 349 348 349 351 351 348 345 347 346 346 346 348 346 344 342 343 344 344 345 345 344 344
351 353 351 349 350 351 344 349 355 355 342 348 356 343 332 330 336 349 351 346 354 349 345 346 347 349 346 347 348 348 345 344 346 347 345 343 343 344 344 344 343 343 344
350 347 348 350 353 350 348 355 357 354 355 345 348 349 350 348 336 331 343 346 347 348 353 346 351 344 350 349 348 347 342 342 345 346 344 344 344 344 345 343 343 343 343
353 349 340 342 352 354 354 357 358 357 353 349 345 345 346 345 349 339 333 339 343 343 345 347 344 345 344 345 344 344 338 338 339 340 341 343 344 343 345 344 343 343 341
355 356 351 350 352 358 357 361 364 363 357 356 351 349 343 340 339 339 335 338 338 343 342 342 346 341 342 344 344 339 337 334 334 334 336 337 341 342 344 343 343 342 340
342 361 362 360 359 362 362 363 363 363 361 354 357 348 347 346 345 340 338 337 333 340 338 339 342 339 341 342 344 340 336 333 330 329 331 332 336 338 341 341 342 340 340
339 351 365 362 365 364 362 365 359 358 359 355 358 353 348 347 347 346 341 337 333 333 335 339 340 338 341 345 339 337 338 330 328 326 326 328 331 334 336 337 337 337 337
341 344 355 361 361 362 365 365 357 358 358 357 355 358 352 349 351 346 347 339 335 331 328 336 336 342 339 342 336 341 339 330 329 325 324 325 327 329 330 331 331 331 331
349 352 352 353 358 360 363 364 358 358 355 353 351 355 355 351 349 347 345 340 340 332 325 333 334 341 341 339 338 340 341 331 327 324 324 323 323 324 325 326 326 327 328
348 348 350 352 353 357 361 361 357 353 354 355 355 355 352 356 344 343 343 342 337 335 328 334 337 341 337 337 337 338 339 342 336 323 323 322 319 320 321 322 322 324 325
346 345 346 347 349 352 358 356 353 349 353 352 351 353 350 347 350 351 342 346 341 341 331 335 337 334 334 338 337 334 334 340 341 324 321 320 317 316 316 316 318 320 320
344 343 343 346 346 349 353 354 352 351 353 353 352 349 347 348 349 348 344 341 336 337 337 332 335 333 332 334 329 331 333 338 336 323 319 320 318 316 316 315 316 317 316
342 341 345 344 347 349 350 352 352 355 355 353 354 351 347 347 345 345 345 344 343 338 339 339 333 331 329 334 330 326 326 335 332 333 325 323 320 317 315 315 317 317 314
343 340 342 344 351 351 348 353 354 355 354 350 351 347 349 342 333 339 339 343 344 336 337 336 335 329 326 328 327 330 330 328 331 334 331 332 332 325 320 316 322 320 312
344 341 344 347 351 347 320 322 343 354 350 347 346 346 345 332 329 318 320 321 332 339 337 336 336 328 329 329 337 330 328 325 322 333 332 328 334 327 324 327 318 313 312
344 346 348 352 352 353 312 313 320 352 348 347 348 345 342 339 334 338 316 317 318 317 319 338 333 335 332 331 335 330 329 331 330 329 330 327 330 327 327 323 312 309 308
342 345 350 351 353 349 308 311 316 351 348 347 345 344 342 340 337 336 336 334 334 335 333 334 339 338 338 338 337 338 335 335 332 331 336 323 324 323 325 323 309 308 307
341 345 349 349 350 339 305 310 327 346 343 342 341 340 339 339 315 312 336 334 334 332 311 308 309 306 308 310 324 336 333 328 324 326 335 324 322 321 323 319 317 309 307
342 347 348 350 334 340 303 309 324 341 340 336 338 332 310 329 305 306 335 334 330 330 327 327 328 322 315 321 313 332 335 328 323 323 332 328 322 322 320 324 322 318 317
Wind_Speed
8 8 7 8 6 8 8 8 8 6 8 10 11 12 12 12 11 8 7 14 12 12 13 14 13 13 13 13 13 12 11 10 10 11 11 12 11 12 14 16 19 19 18
7 9 8 9 8 8 7 6 6 7 8 8 10 11 12 11 11 10 9 8 15 15 15 16 15 14 14 14 14 13 12 10 10 10 11 12 12 12 14 15 19 19 18
10 9 9 9 8 8 6 5 5 8 8 8 10 9 9 12 12 11 9 10 9 14 16 16 16 15 14 14 15 13 12 11 11 11 11 11 12 12 14 15 17 17 17
13 10 9 9 9 8 8 8 9 10 8 9 7 6 8 9 12 10 11 10 9 8 15 17 17 15 14 16 15 14 12 10 11 11 11 12 13 13 14 16 16 16 15
14 12 10 9 6 7 6 6 8 8 7 6 7 7 8 9 10 9 10 10 10 10 7 18 18 16 13 14 16 16 15 12 11 12 12 13 13 14 14 15 15 15 14
12 12 10 7 10 9 9 9 8 8 10 6 8 8 8 8 8 9 9 9 10 11 9 8 9 10 16 16 17 17 15 13 13 14 13 14 14 14 14 14 14 13 13
13 13 11 12 9 10 13 9 7 11 9 7 7 9 9 9 11 9 8 7 10 11 7 5 4 6 7 17 17 17 18 15 15 15 14 13 15 15 14 14 13 12 12
12 12 13 11 13 11 12 10 10 10 8 7 7 7 10 8 10 10 9 8 10 4 4 7 9 9 8 5 12 16 17 18 16 15 14 14 15 15 15 14 13 12 12
13 12 13 12 10 12 11 13 12 12 10 9 11 8 7 8 6 9 10 9 5 3 6 6 9 8 7 7 8 11 15 14 17 16 14 14 15 16 15 15 14 12 12
13 15 14 10 12 11 15 12 11 12 11 10 9 8 11 11 7 7 5 7 8 7 7 6 4 6 4 4 11 5 7 10 13 15 14 13 15 16 15 15 14 12 12
11 16 13 9 11 14 16 15 11 12 10 9 10 8 9 10 8 7 10 3 7 7 3 4 7 3 4 6 7 7 12 11 10 11 12 12 15 16 15 15 14 13 13
12 14 10 12 20 18 19 12 12 13 13 10 10 8 9 8 9 7 8 10 8 5 5 6 4 3 4 7 7 9 9 5 9 8 10 11 13 14 15 15 15 13 12
10 11 15 15 16 17 16 13 12 12 11 10 10 9 8 8 9 8 7 4 2 3 3 6 5 5 4 5 3 7 11 9 8 9 9 9 9 12 12 13 13 13 12
10 12 13 16 17 17 16 14 10 11 10 11 13 11 9 8 7 6 6 4 7 8 5 6 5 5 3 3 6 2 4 9 9 8 8 7 9 10 11 11 12 12 11
11 14 9 12 15 16 14 13 11 12 11 11 11 11 11 7 3 6 3 7 9 10 8 6 3 3 2 1 4 5 6 12 10 8 8 7 8 10 11 11 12 13 12
13 12 11 13 13 14 14 14 12 11 12 10 10 12 11 9 6 5 5 5 9 8 8 5 4 4 3 3 5 5 4 5 10 9 7 7 8 9 10 11 12 14 14
13 14 13 13 15 15 15 14 12 13 14 12 12 13 14 10 8 6 4 7 8 6 8 2 4 6 1 5 2 4 6 6 6 8 7 8 7 7 9 11 15 17 16
13 13 13 15 15 15 14 15 16 14 15 14 13 12 12 9 9 5 4 8 4 7 7 3 2 3 4 2 2 4 5 4 4 7 6 6 6 7 8 12 15 16 15
14 15 15 16 16 16 16 16 17 15 14 14 13 12 12 12 10 7 9 7 7 6 5 4 4 3 1 2 1 2 3 2 6 8 8 6 6 6 10 14 16 16 16
17 16 15 17 18 18 18 18 17 14 13 12 11 12 12 11 11 10 9 7 5 4 2 3 4 5 3 5 4 1 1 2 3 6 10 10 5 6 9 13 17 16 16
18 17 17 17 17 15 14 16 15 13 11 11 10 10 9 8 9 10 8 8 7 8 4 3 5 5 5 5 6 5 4 4 2 3 5 5 5 4 3 6 11 13 12
19 16 17 17 16 13 15 15 13 12 12 10 10 9 9 10 8 9 8 9 1 6 7 6 6 7 7 6 4 6 5 6 3 3 5 4 4 4 3 4 10 10 11
18 16 18 17 16 15 17 15 12 12 10 9 10 10 10 9 9 10 6 4 4 7 3 5 7 7 7 9 4 4 8 7 4 5 5 4 1 5 4 4 8 11 12
17 16 17 17 14 11 13 17 13 11 10 10 11 10 10 10 11 10 10 10 10 9 7 6 5 4 4 7 5 6 4 6 6 7 6 3 2 2 2 4 9 11 11
16 16 15 17 16 12 11 18 15 13 11 11 11 11 10 7 10 4 8 7 7 6 7 8 7 4 2 4 5 3 6 7 5 5 5 4 2 2 2 2 4 7 10
16 14 16 16 15 15 10 18 14 10 11 10 8 8 11 5 11 9 9 4 7 7 6 5 3 4 3 5 4 2 3 4 5 4 3 4 6 3 2 3 4 6 5
Wind_Direction
219 203 235 237 221 209 208 221 237 248 232 243 260 264 267 271 267 271 282 165 173 186 216 233 230 232 233 226 221 219 215 220 216 214 212 210 206 200 207 203 201 202 215
209 214 216 229 241 235 237 230 226 240 228 241 254 248 265 267 261 256 257 216 189 191 208 228 231 236 235 226 220 215 214 216 220 213 210 210 209 203 205 209 204 211 204
225 205 221 221 227 232 238 250 253 246 244 245 239 251 255 254 260 257 252 258 208 204 205 214 225 232 233 231 221 214 209 209 219 214 209 210 208 206 206 208 206 205 203
219 201 229 223 228 222 200 213 210 233 230 242 249 257 254 244 260 239 253 251 251 247 207 212 209 219 229 235 229 218 214 221 219 214 209 210 210 209 209 210 212 214 209
208 226 216 223 227 223 231 216 236 220 250 216 258 250 248 261 257 251 246 245 247 270 258 195 203 207 220 226 229 222 218 218 218 217 211 210 213 211 210 212 216 219 216
215 213 231 223 183 217 232 207 225 233 235 230 255 253 245 253 247 247 247 243 245 232 238 189 186 211 213 219 226 226 223 223 208 212 211 208 212 213 213 213 215 216 218
219 215 229 209 205 213 222 199 205 225 226 217 254 257 255 222 233 254 247 230 237 225 205 223 222 265 199 213 212 214 219 232 218 207 206 207 209 211 209 211 209 208 202
218 228 229 226 207 215 216 218 212 234 222 223 238 255 263 244 211 213 239 242 236 247 202 202 214 223 271 198 208 212 227 227 222 211 205 204 209 211 207 207 208 207 201
226 223 237 231 245 227 219 223 207 218 232 210 220 229 267 252 303 183 206 236 235 198 247 178 191 224 219 248 200 197 212 219 223 217 209 206 208 210 208 203 206 211 206
206 215 218 228 247 245 236 209 207 215 217 221 203 206 256 286 289 274 182 200 229 214 246 257 205 204 257 235 236 211 163 219 219 222 221 210 210 210 209 206 206 210 210
211 205 212 159 268 247 240 233 202 198 201 227 235 199 220 242 240 266 283 212 209 229 193 184 263 197 220 253 263 192 185 188 214 231 219 209 207 208 207 207 206 206 215
206 219 204 193 224 226 239 217 217 198 205 201 234 256 224 220 230 214 243 269 209 248 227 211 184 249 249 226 209 129 150 219 205 217 218 213 204 205 205 204 205 203 204
253 201 197 217 218 223 230 227 208 208 193 214 223 235 229 237 245 253 240 222 255 224 206 227 166 206 243 277 269 181 162 183 209 219 214 207 199 198 196 199 193 188 184
259 272 193 205 213 219 216 216 207 215 197 202 229 221 252 225 247 264 285 292 250 264 182 231 197 216 193 222 112 114 202 181 196 206 203 206 187 190 184 182 182 176 163
260 271 260 217 220 223 215 209 207 205 203 205 210 219 229 222 181 240 190 245 251 255 248 189 200 150 289 191 50 267 250 176 190 191 199 195 185 190 181 178 171 166 146
270 270 239 229 232 227 217 207 200 196 197 205 212 201 213 224 191 227 177 216 244 271 278 158 216 125 62 291 109 293 308 182 183 178 186 189 188 191 176 169 164 145 147
252 251 253 233 222 224 213 206 204 195 197 204 210 190 204 217 206 200 171 230 228 257 258 145 160 110 105 252 259 312 291 260 177 171 184 183 189 172 174 166 153 151 154
258 252 246 242 226 219 208 203 209 199 194 199 204 195 200 202 214 210 214 230 183 244 257 131 177 124 253 75 353 289 273 289 212 132 149 154 150 167 164 156 162 155 155
259 250 241 232 231 218 206 202 206 210 190 197 199 205 205 204 194 203 236 206 221 235 219 228 186 164 203 194 52 339 303 218 84 123 118 131 169 156 165 165 167 170 162
268 255 240 235 228 217 204 200 205 204 188 199 191 199 207 204 192 209 211 224 237 224 212 141 199 161 189 172 145 163 114 72 77 97 70 86 98 136 172 173 166 167 166
269 252 248 233 226 211 202 196 199 189 187 188 187 200 209 194 200 213 211 209 213 217 208 195 208 159 190 184 204 172 145 109 109 164 157 153 115 121 124 151 166 164 160
264 245 244 229 214 208 180 178 187 173 183 183 184 195 161 129 114 106 101 54 167 217 222 204 225 209 183 224 186 162 157 156 161 272 154 136 130 110 128 161 162 154 167
263 235 239 221 211 201 156 150 161 171 170 180 183 184 182 186 177 187 127 128 161 128 128 238 213 235 178 207 222 172 181 211 162 165 198 133 107 115 140 135 152 157 166
254 230 230 215 200 157 158 139 150 163 171 179 177 189 198 159 183 204 189 206 218 208 214 229 232 229 220 188 207 197 203 118 116 157 213 120 93 87 101 112 170 173 171
243 224 219 207 192 150 166 142 160 158 167 177 188 190 191 190 139 118 200 207 209 142 82 80 77 38 151 244 208 176 172 192 140 189 183 115 132 111 130 143 151 166 174
231 215 206 193 171 156 173 153 186 165 166 177 161 107 65 183 143 152 223 187 207 179 158 152 128 110 170 145 151 240 224 212 165 168 182 161 153 151 159 152 166 176 193